QPF
0.00 0.00 0.00 0.00 0.00 0.01 0.01 0.01 0.01 0.01 0.02 0.03 0.04 0.04 0.05 0.05 0.06 0.07 0.07 0.08 0.04 0.04 0.07 0.06 0.09 0.10 0.11 0.10 0.10 0.12 0.10 0.11 0.11 0.12 0.11 0.10 0.09 0.09 0.09 0.08 0.08 0.08 0.08
0.00 0.00 0.00 0.00 0.00 0.00 0.01 0.01 0.02 0.02 0.02 0.03 0.05 0.05 0.05 0.05 0.05 0.05 0.06 0.03 0.03 0.05 0.05 0.07 0.08 0.10 0.11 0.11 0.12 0.14 0.12 0.10 0.13 0.14 0.13 0.13 0.13 0.10 0.09 0.07 0.06 0.06 0.08
0.00 0.00 0.00 0.00 0.00 0.00 0.00 0.01 0.01 0.01 0.02 0.04 0.04 0.06 0.06 0.05 0.05 0.09 0.12 0.07 0.05 0.04 0.05 0.05 0.07 0.11 0.13 0.15 0.15 0.15 0.14 0.13 0.13 0.13 0.13 0.13 0.14 0.12 0.11 0.09 0.06 0.05 0.07
0.01 0.00 0.00 0.00 0.01 0.01 0.01 0.01 0.01 0.02 0.02 0.02 0.02 0.04 0.04 0.05 0.05 0.09 0.12 0.07 0.06 0.04 0.03 0.03 0.05 0.09 0.10 0.13 0.12 0.13 0.15 0.15 0.14 0.15 0.14 0.13 0.12 0.12 0.13 0.11 0.08 0.07 0.06
0.01 0.00 0.00 0.00 0.01 0.02 0.02 0.02 0.02 0.03 0.03 0.03 0.03 0.04 0.04 0.06 0.06 0.08 0.08 0.07 0.06 0.05 0.03 0.03 0.04 0.05 0.07 0.08 0.08 0.10 0.11 0.14 0.14 0.14 0.13 0.12 0.13 0.12 0.12 0.11 0.11 0.10 0.06
0.01 0.01 0.00 0.00 0.01 0.02 0.03 0.03 0.02 0.02 0.03 0.03 0.03 0.04 0.05 0.07 0.08 0.06 0.06 0.05 0.05 0.04 0.03 0.03 0.04 0.04 0.05 0.06 0.07 0.08 0.09 0.12 0.13 0.15 0.13 0.11 0.12 0.13 0.12 0.08 0.09 0.09 0.07
0.04 0.04 0.01 0.01 0.02 0.03 0.05 0.05 0.03 0.02 0.03 0.03 0.03 0.03 0.05 0.05 0.05 0.04 0.05 0.05 0.04 0.05 0.05 0.04 0.04 0.04 0.04 0.04 0.05 0.07 0.09 0.09 0.10 0.11 0.12 0.12 0.11 0.12 0.12 0.08 0.07 0.08 0.08
0.03 0.04 0.02 0.01 0.01 0.01 0.03 0.04 0.03 0.02 0.03 0.03 0.03 0.04 0.05 0.05 0.04 0.05 0.04 0.04 0.04 0.04 0.03 0.03 0.03 0.03 0.04 0.04 0.06 0.07 0.08 0.07 0.08 0.09 0.14 0.15 0.12 0.11 0.12 0.10 0.08 0.08 0.08
0.01 0.02 0.02 0.01 0.01 0.01 0.02 0.02 0.03 0.02 0.03 0.03 0.03 0.03 0.04 0.05 0.05 0.05 0.03 0.03 0.03 0.02 0.04 0.05 0.05 0.05 0.06 0.06 0.07 0.07 0.07 0.08 0.08 0.10 0.13 0.14 0.12 0.10 0.10 0.11 0.09 0.08 0.09
0.01 0.01 0.01 0.01 0.00 0.02 0.02 0.01 0.02 0.02 0.03 0.04 0.04 0.03 0.04 0.04 0.04 0.03 0.03 0.03 0.03 0.02 0.03 0.03 0.04 0.05 0.05 0.06 0.08 0.07 0.07 0.08 0.08 0.09 0.12 0.12 0.09 0.09 0.09 0.09 0.08 0.07 0.07
0.02 0.01 0.02 0.01 0.01 0.01 0.01 0.01 0.02 0.03 0.04 0.04 0.04 0.04 0.04 0.03 0.03 0.03 0.03 0.03 0.03 0.03 0.04 0.04 0.05 0.05 0.05 0.05 0.05 0.05 0.06 0.07 0.08 0.09 0.10 0.09 0.07 0.08 0.09 0.08 0.07 0.06 0.06
0.03 0.02 0.02 0.02 0.01 0.01 0.02 0.02 0.02 0.03 0.03 0.04 0.04 0.03 0.03 0.03 0.03 0.03 0.03 0.03 0.03 0.04 0.04 0.04 0.04 0.05 0.05 0.04 0.04 0.05 0.07 0.07 0.07 0.08 0.10 0.08 0.07 0.09 0.09 0.10 0.07 0.06 0.05
0.04 0.03 0.04 0.03 0.02 0.02 0.04 0.03 0.02 0.02 0.02 0.03 0.03 0.02 0.02 0.02 0.02 0.03 0.03 0.03 0.03 0.03 0.03 0.03 0.04 0.04 0.05 0.05 0.05 0.05 0.06 0.07 0.07 0.07 0.08 0.10 0.10 0.09 0.09 0.09 0.08 0.06 0.06
0.05 0.04 0.05 0.05 0.04 0.04 0.03 0.03 0.03 0.02 0.02 0.02 0.03 0.03 0.03 0.02 0.03 0.03 0.03 0.02 0.02 0.02 0.03 0.02 0.02 0.02 0.02 0.03 0.03 0.03 0.04 0.05 0.06 0.07 0.07 0.09 0.10 0.10 0.12 0.13 0.11 0.08 0.08
0.04 0.06 0.04 0.05 0.04 0.02 0.02 0.03 0.02 0.02 0.02 0.03 0.02 0.02 0.02 0.03 0.03 0.04 0.03 0.02 0.02 0.02 0.03 0.03 0.03 0.02 0.02 0.01 0.02 0.02 0.05 0.08 0.08 0.08 0.07 0.07 0.07 0.07 0.08 0.08 0.09 0.08 0.07
0.03 0.06 0.05 0.03 0.05 0.03 0.01 0.01 0.01 0.01 0.02 0.04 0.02 0.02 0.02 0.02 0.03 0.03 0.03 0.04 0.03 0.03 0.03 0.04 0.04 0.03 0.02 0.02 0.02 0.03 0.05 0.05 0.04 0.04 0.04 0.03 0.02 0.02 0.02 0.02 0.03 0.03 0.04
0.02 0.02 0.03 0.02 0.03 0.03 0.01 0.01 0.01 0.01 0.01 0.02 0.02 0.02 0.03 0.03 0.03 0.02 0.03 0.03 0.04 0.04 0.03 0.04 0.04 0.04 0.03 0.03 0.03 0.03 0.05 0.06 0.06 0.06 0.05 0.02 0.02 0.01 0.01 0.01 0.01 0.02 0.02
0.03 0.03 0.03 0.01 0.02 0.02 0.01 0.01 0.01 0.01 0.01 0.02 0.02 0.03 0.04 0.04 0.04 0.04 0.04 0.04 0.04 0.04 0.04 0.04 0.04 0.05 0.04 0.03 0.03 0.03 0.04 0.05 0.04 0.04 0.04 0.04 0.04 0.03 0.03 0.02 0.02 0.02 0.02
0.03 0.06 0.05 0.02 0.01 0.02 0.02 0.01 0.01 0.01 0.01 0.02 0.03 0.02 0.03 0.04 0.04 0.05 0.04 0.04 0.05 0.04 0.04 0.04 0.05 0.05 0.04 0.04 0.03 0.03 0.04 0.04 0.04 0.04 0.04 0.04 0.04 0.03 0.03 0.03 0.03 0.02 0.02
0.02 0.06 0.09 0.06 0.03 0.02 0.02 0.02 0.02 0.02 0.02 0.02 0.03 0.04 0.04 0.04 0.05 0.06 0.06 0.06 0.05 0.05 0.04 0.05 0.06 0.07 0.06 0.06 0.04 0.03 0.04 0.04 0.05 0.05 0.04 0.04 0.03 0.03 0.03 0.04 0.04 0.04 0.03
0.02 0.03 0.06 0.06 0.04 0.03 0.03 0.03 0.03 0.03 0.04 0.04 0.04 0.05 0.05 0.05 0.06 0.07 0.07 0.07 0.06 0.07 0.06 0.06 0.06 0.05 0.05 0.03 0.02 0.02 0.03 0.03 0.04 0.05 0.06 0.04 0.03 0.02 0.02 0.03 0.03 0.02 0.03
0.02 0.03 0.06 0.06 0.04 0.03 0.03 0.04 0.04 0.05 0.05 0.05 0.06 0.06 0.07 0.07 0.07 0.08 0.08 0.08 0.07 0.06 0.06 0.06 0.05 0.05 0.03 0.02 0.02 0.01 0.01 0.02 0.04 0.07 0.05 0.03 0.04 0.04 0.03 0.02 0.02 0.02 0.02
0.03 0.03 0.04 0.06 0.05 0.03 0.03 0.04 0.05 0.05 0.05 0.06 0.06 0.08 0.08 0.10 0.10 0.10 0.09 0.08 0.08 0.06 0.05 0.05 0.05 0.04 0.03 0.03 0.02 0.01 0.01 0.02 0.03 0.04 0.03 0.02 0.02 0.03 0.02 0.02 0.01 0.01 0.02
0.04 0.04 0.04 0.05 0.05 0.03 0.04 0.07 0.08 0.08 0.07 0.06 0.07 0.08 0.09 0.11 0.11 0.09 0.08 0.07 0.07 0.06 0.06 0.06 0.06 0.07 0.07 0.06 0.03 0.01 0.01 0.01 0.01 0.01 0.01 0.01 0.01 0.01 0.01 0.01 0.01 0.01 0.02
0.04 0.04 0.04 0.05 0.05 0.04 0.05 0.08 0.12 0.12 0.11 0.09 0.08 0.08 0.10 0.10 0.10 0.09 0.07 0.07 0.06 0.06 0.05 0.05 0.06 0.07 0.07 0.06 0.03 0.01 0.01 0.01 0.01 0.01 0.01 0.01 0.01 0.01 0.02 0.02 0.02 0.02 0.02
0.04 0.05 0.06 0.07 0.07 0.06 0.06 0.07 0.11 0.14 0.15 0.11 0.09 0.09 0.09 0.09 0.08 0.08 0.09 0.08 0.07 0.05 0.05 0.05 0.04 0.04 0.04 0.04 0.03 0.02 0.02 0.01 0.01 0.01 0.02 0.02 0.02 0.02 0.02 0.02 0.02 0.03 0.03
MSLP
1012.94 1012.67 1012.32 1011.92 1011.50 1011.11 1010.78 1010.54 1010.39 1010.34 1010.38 1010.49 1010.64 1010.82 1010.99 1011.15 1011.27 1011.36 1011.43 1011.49 1011.55 1011.62 1011.72 1011.86 1012.03 1012.21 1012.40 1012.57 1012.71 1012.79 1012.80 1012.73 1012.58 1012.38 1012.13 1011.86 1011.60 1011.37 1011.19 1011.08 1011.05 1011.08 1011.18
1014.00 1013.87 1013.64 1013.34 1012.99 1012.64 1012.31 1012.04 1011.84 1011.72 1011.67 1011.68 1011.73 1011.79 1011.85 1011.88 1011.89 1011.87 1011.83 1011.79 1011.77 1011.78 1011.84 1011.96 1012.13 1012.33 1012.54 1012.75 1012.92 1013.04 1013.08 1013.04 1012.91 1012.71 1012.45 1012.15 1011.85 1011.57 1011.33 1011.16 1011.06 1011.05 1011.11
1014.77 1014.75 1014.64 1014.44 1014.18 1013.89 1013.60 1013.34 1013.12 1012.96 1012.85 1012.78 1012.73 1012.69 1012.64 1012.56 1012.46 1012.32 1012.19 1012.06 1011.96 1011.92 1011.94 1012.03 1012.19 1012.39 1012.62 1012.85 1013.06 1013.21 1013.29 1013.29 1013.20 1013.02 1012.77 1012.47 1012.14 1011.81 1011.52 1011.29 1011.13 1011.06 1011.06
1015.28 1015.33 1015.30 1015.19 1015.02 1014.81 1014.58 1014.35 1014.14 1013.95 1013.80 1013.67 1013.56 1013.44 1013.30 1013.14 1012.94 1012.73 1012.51 1012.31 1012.15 1012.05 1012.03 1012.08 1012.20 1012.38 1012.61 1012.84 1013.06 1013.25 1013.37 1013.41 1013.36 1013.22 1013.00 1012.71 1012.38 1012.03 1011.70 1011.41 1011.18 1011.04 1010.98
1015.62 1015.69 1015.70 1015.65 1015.55 1015.41 1015.23 1015.04 1014.85 1014.66 1014.49 1014.33 1014.16 1013.99 1013.80 1013.58 1013.33 1013.07 1012.80 1012.56 1012.35 1012.19 1012.11 1012.11 1012.17 1012.31 1012.49 1012.70 1012.90 1013.09 1013.23 1013.31 1013.31 1013.21 1013.04 1012.78 1012.46 1012.11 1011.75 1011.42 1011.14 1010.94 1010.82
1015.87 1015.91 1015.92 1015.90 1015.84 1015.74 1015.60 1015.44 1015.27 1015.08 1014.90 1014.72 1014.53 1014.34 1014.12 1013.88 1013.62 1013.34 1013.06 1012.79 1012.54 1012.34 1012.20 1012.12 1012.11 1012.16 1012.26 1012.40 1012.57 1012.73 1012.86 1012.96 1012.99 1012.94 1012.82 1012.61 1012.32 1011.99 1011.63 1011.28 1010.97 1010.71 1010.54
1016.11 1016.08 1016.06 1016.03 1015.97 1015.89 1015.77 1015.62 1015.45 1015.26 1015.07 1014.88 1014.69 1014.49 1014.28 1014.05 1013.80 1013.54 1013.27 1012.99 1012.73 1012.49 1012.28 1012.12 1012.01 1011.96 1011.95 1011.99 1012.07 1012.17 1012.28 1012.36 1012.41 1012.40 1012.32 1012.17 1011.94 1011.65 1011.31 1010.97 1010.65 1010.37 1010.16
1016.37 1016.26 1016.18 1016.11 1016.03 1015.93 1015.81 1015.65 1015.46 1015.27 1015.06 1014.86 1014.66 1014.47 1014.28 1014.09 1013.88 1013.66 1013.42 1013.16 1012.90 1012.62 1012.36 1012.12 1011.90 1011.73 1011.60 1011.52 1011.49 1011.50 1011.55 1011.60 1011.64 1011.65 1011.61 1011.51 1011.34 1011.11 1010.83 1010.53 1010.23 1009.96 1009.75
1016.67 1016.48 1016.33 1016.21 1016.09 1015.96 1015.80 1015.61 1015.39 1015.16 1014.93 1014.72 1014.52 1014.34 1014.17 1014.02 1013.86 1013.69 1013.50 1013.28 1013.02 1012.74 1012.43 1012.12 1011.81 1011.52 1011.27 1011.07 1010.92 1010.83 1010.79 1010.78 1010.80 1010.81 1010.80 1010.74 1010.63 1010.46 1010.25 1010.01 1009.77 1009.55 1009.37
1016.98 1016.72 1016.52 1016.35 1016.19 1016.01 1015.80 1015.56 1015.30 1015.03 1014.76 1014.52 1014.31 1014.13 1013.99 1013.87 1013.76 1013.64 1013.50 1013.32 1013.09 1012.81 1012.49 1012.13 1011.76 1011.38 1011.03 1010.72 1010.46 1010.26 1010.13 1010.06 1010.02 1010.01 1010.00 1009.98 1009.91 1009.81 1009.68 1009.51 1009.34 1009.19 1009.07
1017.28 1017.00 1016.76 1016.55 1016.35 1016.12 1015.86 1015.57 1015.25 1014.92 1014.61 1014.32 1014.08 1013.90 1013.76 1013.66 1013.59 1013.51 1013.42 1013.28 1013.09 1012.84 1012.53 1012.16 1011.76 1011.34 1010.92 1010.53 1010.19 1009.91 1009.69 1009.54 1009.45 1009.39 1009.36 1009.34 1009.30 1009.24 1009.17 1009.08 1008.99 1008.91 1008.86
1017.57 1017.29 1017.05 1016.81 1016.57 1016.30 1015.99 1015.64 1015.26 1014.88 1014.51 1014.17 1013.90 1013.68 1013.53 1013.44 1013.37 1013.32 1013.26 1013.17 1013.02 1012.81 1012.53 1012.19 1011.80 1011.38 1010.95 1010.52 1010.13 1009.79 1009.51 1009.29 1009.12 1009.01 1008.94 1008.89 1008.84 1008.81 1008.77 1008.73 1008.70 1008.68 1008.70
1017.86 1017.61 1017.37 1017.13 1016.86 1016.56 1016.20 1015.80 1015.36 1014.92 1014.49 1014.10 1013.77 1013.51 1013.33 1013.21 1013.14 1013.09 1013.04 1012.97 1012.86 1012.70 1012.47 1012.18 1011.84 1011.46 1011.05 1010.64 1010.24 1009.87 1009.54 1009.27 1009.04 1008.86 1008.72 1008.62 1008.55 1008.49 1008.45 1008.43 1008.44 1008.47 1008.53
1018.17 1017.94 1017.72 1017.48 1017.20 1016.86 1016.46 1016.02 1015.53 1015.03 1014.54 1014.09 1013.71 1013.40 1013.16 1013.00 1012.89 1012.82 1012.77 1012.70 1012.62 1012.49 1012.32 1012.09 1011.82 1011.50 1011.16 1010.79 1010.42 1010.05 1009.71 1009.39 1009.11 1008.87 1008.66 1008.50 1008.37 1008.27 1008.20 1008.16 1008.16 1008.20 1008.28
1018.50 1018.31 1018.10 1017.85 1017.55 1017.18 1016.75 1016.26 1015.72 1015.18 1014.64 1014.14 1013.70 1013.34 1013.04 1012.82 1012.66 1012.54 1012.45 1012.37 1012.29 1012.18 1012.05 1011.88 1011.68 1011.44 1011.16 1010.86 1010.54 1010.21 1009.87 1009.54 1009.22 1008.93 1008.67 1008.44 1008.24 1008.08 1007.96 1007.88 1007.85 1007.87 1007.94
1018.85 1018.67 1018.46 1018.19 1017.86 1017.46 1017.00 1016.47 1015.91 1015.33 1014.76 1014.22 1013.74 1013.32 1012.96 1012.67 1012.44 1012.26 1012.12 1012.00 1011.89 1011.78 1011.66 1011.53 1011.38 1011.21 1011.00 1010.77 1010.51 1010.22 1009.91 1009.59 1009.27 1008.95 1008.65 1008.37 1008.12 1007.90 1007.72 1007.59 1007.51 1007.48 1007.51
1019.18 1018.99 1018.76 1018.46 1018.10 1017.67 1017.17 1016.62 1016.04 1015.44 1014.86 1014.30 1013.79 1013.32 1012.91 1012.56 1012.26 1012.01 1011.79 1011.61 1011.45 1011.31 1011.19 1011.06 1010.94 1010.80 1010.65 1010.47 1010.27 1010.03 1009.77 1009.48 1009.18 1008.87 1008.56 1008.26 1007.98 1007.72 1007.50 1007.32 1007.18 1007.10 1007.08
1019.43 1019.21 1018.94 1018.60 1018.20 1017.73 1017.21 1016.65 1016.07 1015.48 1014.90 1014.35 1013.82 1013.34 1012.90 1012.50 1012.14 1011.81 1011.52 1011.26 1011.04 1010.85 1010.68 1010.53 1010.40 1010.27 1010.14 1010.00 1009.84 1009.65 1009.44 1009.20 1008.94 1008.67 1008.39 1008.11 1007.84 1007.58 1007.34 1007.13 1006.95 1006.82 1006.74
1019.54 1019.28 1018.96 1018.57 1018.13 1017.64 1017.11 1016.56 1015.99 1015.43 1014.88 1014.35 1013.85 1013.37 1012.91 1012.48 1012.07 1011.69 1011.33 1011.01 1010.71 1010.45 1010.22 1010.03 1009.86 1009.72 1009.58 1009.45 1009.31 1009.16 1009.00 1008.81 1008.61 1008.40 1008.18 1007.95 1007.73 1007.50 1007.28 1007.07 1006.88 1006.71 1006.59
1019.46 1019.15 1018.78 1018.36 1017.89 1017.39 1016.87 1016.35 1015.82 1015.31 1014.81 1014.32 1013.86 1013.40 1012.96 1012.52 1012.09 1011.67 1011.26 1010.87 1010.52 1010.19 1009.90 1009.65 1009.44 1009.26 1009.10 1008.95 1008.82 1008.69 1008.55 1008.42 1008.28 1008.14 1007.99 1007.84 1007.68 1007.51 1007.33 1007.15 1006.97 1006.80 1006.64
1019.19 1018.84 1018.43 1017.99 1017.52 1017.03 1016.54 1016.05 1015.59 1015.14 1014.70 1014.28 1013.86 1013.45 1013.03 1012.61 1012.18 1011.74 1011.31 1010.89 1010.49 1010.11 1009.78 1009.48 1009.21 1008.99 1008.79 1008.62 1008.47 1008.34 1008.22 1008.12 1008.03 1007.94 1007.87 1007.79 1007.70 1007.60 1007.48 1007.34 1007.19 1007.02 1006.86
1018.75 1018.37 1017.96 1017.52 1017.06 1016.61 1016.17 1015.74 1015.34 1014.96 1014.60 1014.24 1013.88 1013.52 1013.14 1012.74 1012.32 1011.89 1011.46 1011.03 1010.62 1010.22 1009.86 1009.53 1009.23 1008.96 1008.73 1008.53 1008.35 1008.20 1008.08 1007.98 1007.91 1007.86 1007.83 1007.80 1007.77 1007.72 1007.66 1007.57 1007.45 1007.31 1007.15
1018.21 1017.84 1017.44 1017.02 1016.61 1016.21 1015.82 1015.47 1015.14 1014.82 1014.52 1014.22 1013.91 1013.59 1013.24 1012.88 1012.49 1012.09 1011.67 1011.27 1010.87 1010.48 1010.12 1009.79 1009.48 1009.19 1008.93 1008.69 1008.48 1008.30 1008.15 1008.03 1007.94 1007.89 1007.86 1007.85 1007.85 1007.84 1007.81 1007.75 1007.66 1007.54 1007.40
1017.66 1017.31 1016.94 1016.57 1016.22 1015.88 1015.56 1015.27 1015.00 1014.74 1014.48 1014.22 1013.95 1013.65 1013.34 1012.99 1012.63 1012.27 1011.89 1011.52 1011.16 1010.82 1010.49 1010.18 1009.88 1009.60 1009.33 1009.07 1008.82 1008.60 1008.40 1008.24 1008.11 1008.02 1007.96 1007.93 1007.91 1007.89 1007.87 1007.82 1007.75 1007.64 1007.51
1017.17 1016.86 1016.54 1016.23 1015.94 1015.66 1015.40 1015.16 1014.93 1014.71 1014.48 1014.23 1013.97 1013.68 1013.37 1013.05 1012.72 1012.38 1012.05 1011.74 1011.44 1011.15 1010.88 1010.62 1010.36 1010.10 1009.84 1009.57 1009.30 1009.03 1008.78 1008.56 1008.37 1008.21 1008.09 1008.00 1007.94 1007.88 1007.84 1007.78 1007.70 1007.60 1007.48
1016.80 1016.53 1016.26 1016.00 1015.76 1015.53 1015.32 1015.11 1014.90 1014.69 1014.46 1014.21 1013.94 1013.64 1013.33 1013.01 1012.70 1012.39 1012.11 1011.85 1011.62 1011.41 1011.21 1011.01 1010.81 1010.59 1010.35 1010.09 1009.81 1009.51 1009.22 1008.94 1008.68 1008.45 1008.25 1008.09 1007.96 1007.85 1007.76 1007.68 1007.58 1007.48 1007.36
Thickness
5823 5823 5820 5816 5811 5805 5800 5797 5793 5791 5789 5785 5782 5778 5776 5775 5774 5772 5769 5767 5766 5765 5763 5762 5760 5759 5756 5755 5754 5752 5750 5749 5748 5745 5743 5745 5748 5746 5746 5745 5744 5744 5743
5816 5815 5814 5811 5806 5801 5797 5794 5791 5789 5786 5783 5781 5778 5776 5773 5772 5771 5769 5767 5765 5763 5762 5759 5757 5756 5754 5753 5752 5750 5747 5746 5747 5742 5737 5734 5735 5740 5745 5743 5742 5742 5741
5809 5808 5807 5805 5802 5797 5794 5792 5788 5786 5784 5782 5779 5776 5773 5770 5768 5765 5764 5764 5762 5762 5759 5758 5756 5754 5753 5751 5750 5748 5746 5742 5744 5745 5739 5731 5727 5732 5738 5740 5740 5740 5739
5809 5807 5804 5801 5799 5797 5794 5790 5786 5783 5781 5779 5776 5771 5767 5763 5763 5762 5761 5762 5762 5760 5758 5756 5754 5752 5751 5750 5749 5748 5746 5743 5740 5742 5743 5740 5737 5731 5729 5734 5738 5738 5737
5808 5805 5803 5800 5799 5797 5793 5788 5784 5780 5778 5776 5773 5769 5766 5765 5763 5761 5759 5759 5759 5758 5756 5754 5752 5750 5748 5747 5747 5747 5745 5743 5740 5739 5739 5739 5738 5737 5729 5725 5729 5732 5735
5808 5805 5804 5800 5796 5794 5791 5786 5780 5776 5774 5772 5770 5766 5763 5761 5759 5757 5755 5755 5755 5754 5753 5751 5749 5748 5746 5745 5745 5744 5742 5741 5740 5739 5738 5736 5733 5731 5729 5725 5725 5725 5729
5804 5801 5798 5794 5791 5789 5786 5783 5777 5773 5771 5769 5767 5764 5762 5759 5757 5755 5753 5752 5751 5750 5749 5748 5746 5745 5744 5743 5742 5740 5739 5739 5738 5736 5735 5735 5734 5733 5731 5726 5724 5724 5726
5796 5796 5794 5792 5788 5785 5783 5779 5774 5769 5767 5765 5763 5762 5760 5757 5756 5754 5753 5751 5750 5748 5747 5745 5744 5743 5742 5741 5740 5738 5737 5737 5736 5735 5733 5732 5732 5732 5730 5726 5722 5718 5719
5790 5790 5788 5787 5785 5781 5778 5775 5770 5766 5764 5762 5760 5758 5756 5754 5752 5751 5751 5749 5748 5747 5745 5743 5741 5739 5738 5738 5736 5734 5733 5733 5732 5731 5730 5729 5729 5729 5729 5728 5725 5717 5710
5783 5784 5783 5782 5779 5777 5774 5772 5768 5763 5761 5759 5757 5755 5752 5750 5749 5747 5745 5745 5744 5743 5741 5739 5737 5736 5735 5734 5732 5731 5730 5728 5728 5727 5725 5724 5725 5725 5726 5725 5724 5721 5715
5774 5776 5775 5776 5774 5772 5770 5765 5762 5759 5757 5755 5752 5750 5748 5746 5745 5742 5741 5739 5738 5736 5735 5733 5732 5731 5729 5729 5727 5726 5725 5724 5723 5722 5721 5720 5720 5720 5720 5720 5719 5717 5715
5771 5770 5767 5766 5763 5762 5761 5759 5756 5753 5752 5750 5747 5745 5743 5741 5738 5736 5736 5734 5731 5730 5728 5728 5727 5725 5724 5723 5721 5720 5720 5719 5717 5717 5716 5715 5716 5714 5714 5713 5712 5712 5711
5761 5760 5757 5755 5752 5752 5751 5751 5750 5748 5747 5745 5741 5738 5736 5735 5732 5731 5729 5727 5725 5724 5722 5721 5720 5719 5718 5717 5716 5715 5714 5714 5713 5712 5710 5710 5709 5708 5707 5707 5706 5706 5706
5748 5746 5743 5743 5743 5742 5742 5742 5742 5742 5741 5738 5734 5731 5729 5728 5727 5725 5723 5721 5719 5717 5715 5714 5714 5713 5712 5711 5709 5709 5708 5707 5707 5706 5706 5705 5703 5702 5701 5701 5699 5699 5697
5736 5735 5732 5731 5733 5732 5733 5733 5733 5734 5733 5730 5727 5725 5724 5723 5721 5719 5716 5714 5712 5711 5709 5707 5706 5706 5705 5704 5702 5701 5701 5700 5699 5699 5699 5698 5697 5696 5695 5695 5693 5692 5690
5727 5726 5724 5723 5722 5722 5723 5725 5724 5724 5724 5721 5720 5720 5718 5716 5714 5712 5710 5707 5705 5704 5702 5700 5699 5698 5698 5696 5694 5693 5693 5693 5691 5691 5691 5691 5690 5689 5689 5688 5687 5685 5684
5720 5718 5717 5715 5715 5714 5716 5716 5716 5717 5716 5714 5714 5713 5712 5710 5707 5706 5703 5700 5698 5696 5695 5693 5692 5690 5689 5688 5687 5686 5685 5685 5684 5684 5684 5685 5685 5684 5683 5682 5680 5680 5678
5711 5710 5709 5708 5709 5709 5710 5710 5710 5709 5708 5708 5707 5706 5706 5703 5701 5698 5696 5693 5691 5689 5687 5686 5685 5684 5683 5680 5679 5678 5678 5678 5678 5678 5678 5677 5676 5676 5675 5675 5675 5674 5673
5703 5702 5702 5702 5702 5702 5702 5702 5701 5701 5700 5700 5699 5699 5698 5695 5693 5691 5689 5687 5685 5683 5681 5680 5679 5677 5675 5673 5671 5670 5671 5671 5671 5672 5672 5671 5670 5668 5668 5667 5667 5667 5667
5695 5695 5694 5694 5694 5694 5694 5692 5691 5691 5691 5691 5691 5691 5691 5689 5687 5685 5683 5682 5679 5677 5675 5673 5672 5671 5669 5665 5664 5662 5664 5663 5664 5665 5664 5663 5662 5661 5660 5659 5659 5658 5659
5688 5687 5687 5685 5686 5687 5686 5684 5683 5682 5684 5685 5684 5683 5683 5682 5681 5679 5677 5676 5673 5671 5668 5666 5665 5664 5662 5659 5657 5655 5656 5657 5657 5657 5657 5656 5654 5653 5652 5651 5652 5652 5652
5680 5679 5678 5678 5679 5679 5678 5676 5675 5676 5677 5677 5676 5675 5675 5675 5675 5672 5669 5667 5665 5663 5661 5659 5658 5657 5656 5654 5651 5650 5648 5649 5649 5650 5651 5649 5648 5647 5646 5645 5646 5645 5645
5671 5671 5670 5669 5670 5671 5671 5669 5669 5670 5669 5668 5667 5666 5666 5665 5665 5663 5660 5658 5657 5655 5653 5651 5650 5650 5650 5647 5645 5643 5642 5641 5641 5643 5643 5642 5641 5640 5640 5641 5640 5639 5639
5661 5661 5660 5659 5659 5662 5663 5663 5662 5661 5659 5657 5657 5657 5656 5656 5655 5653 5652 5650 5648 5646 5644 5643 5642 5642 5641 5640 5637 5635 5634 5634 5634 5634 5634 5634 5634 5634 5635 5634 5634 5634 5634
5652 5651 5651 5650 5650 5652 5653 5654 5654 5652 5650 5649 5648 5648 5649 5647 5645 5643 5641 5641 5638 5638 5637 5636 5635 5633 5632 5629 5628 5628 5628 5627 5627 5625 5626 5628 5628 5628 5629 5630 5630 5630 5628
5644 5643 5643 5642 5642 5643 5643 5644 5645 5644 5642 5641 5641 5641 5642 5640 5638 5635 5632 5629 5629 5628 5627 5627 5625 5624 5622 5621 5621 5620 5620 5619 5618 5617 5620 5621 5622 5623 5623 5623 5624 5624 5622